Time,TemperatureF,DewpointF,PressureIn,WindDirection,WindDirectionDegrees,WindSpeedMPH,WindSpeedGustMPH,Humidity,HourlyPrecipIn,Conditions,Clouds,dailyrainin,SoftwareType,DateUTC
2013-01-22 00:04:00,17.0,1.0,-100.00,West,280,5.0,9.0,49,-99.99,,,-99.99,,2013-01-22 05:04:00,
2013-01-22 00:12:00,17.0,1.0,-100.00,West,280,5.0,9.0,49,-99.99,,,-99.99,,2013-01-22 05:12:00,
2013-01-22 00:22:00,17.0,1.0,-100.00,West,280,5.0,9.0,49,-99.99,,,-99.99,,2013-01-22 05:22:00,
2013-01-22 00:32:00,17.0,1.0,-100.00,West,280,5.0,9.0,49,-99.99,,,-99.99,,2013-01-22 05:32:00,
2013-01-22 01:50:00,15.0,-3.0,-100.00,WNW,300,6.0,14.0,45,-99.99,,,-99.99,,2013-01-22 06:50:00,
2013-01-22 02:12:00,15.0,-3.0,-100.00,WNW,300,6.0,14.0,45,-99.99,,,-99.99,,2013-01-22 07:12:00,
2013-01-22 02:22:00,15.0,-3.0,-100.00,WNW,300,6.0,14.0,45,-99.99,,,-99.99,,2013-01-22 07:22:00,
2013-01-22 02:32:00,15.0,-3.0,-100.00,WNW,300,6.0,14.0,45,-99.99,,,-99.99,,2013-01-22 07:32:00,
2013-01-22 02:42:00,15.0,-3.0,-100.00,WNW,300,6.0,14.0,45,-99.99,,,-99.99,,2013-01-22 07:42:00,
2013-01-22 09:34:00,13.0,-1.0,-100.00,West,280,6.0,11.0,52,-99.99,,,-99.99,,2013-01-22 14:34:00,
2013-01-22 09:54:00,13.0,-1.0,-100.00,West,280,6.0,11.0,52,-99.99,,,-99.99,,2013-01-22 14:54:00,
2013-01-22 10:03:00,13.0,-1.0,-100.00,West,280,6.0,11.0,52,-99.99,,,-99.99,,2013-01-22 15:03:00,
2013-01-22 10:13:00,13.0,-1.0,-100.00,West,280,6.0,11.0,52,-99.99,,,-99.99,,2013-01-22 15:13:00,
2013-01-22 10:23:00,13.0,-1.0,-100.00,West,280,6.0,11.0,52,-99.99,,,-99.99,,2013-01-22 15:23:00,
2013-01-22 11:24:00,16.0,-1.0,-100.00,West,280,3.0,11.0,47,-99.99,,,-99.99,,2013-01-22 16:24:00,
2013-01-22 11:33:00,16.0,-1.0,-100.00,West,280,3.0,11.0,47,-99.99,,,-99.99,,2013-01-22 16:33:00,
2013-01-22 11:43:00,16.0,-1.0,-100.00,West,280,3.0,11.0,47,-99.99,,,-99.99,,2013-01-22 16:43:00,
2013-01-22 11:54:00,16.0,-1.0,-100.00,West,280,3.0,11.0,47,-99.99,,,-99.99,,2013-01-22 16:54:00,
2013-01-22 12:03:00,16.0,-1.0,-100.00,West,280,3.0,11.0,47,-99.99,,,-99.99,,2013-01-22 17:03:00,
2013-01-22 15:34:00,22.0,0.0,-100.00,West,265,8.0,12.0,38,-99.99,,,-99.99,,2013-01-22 20:34:00,
2013-01-22 15:43:00,22.0,0.0,-100.00,West,265,8.0,12.0,38,-99.99,,,-99.99,,2013-01-22 20:43:00,
2013-01-22 15:53:00,21.0,-1.0,-100.00,WNW,300,7.0,17.0,38,-99.99,,,-99.99,,2013-01-22 20:53:00,
2013-01-22 16:03:00,21.0,-1.0,-100.00,WNW,300,7.0,17.0,38,-99.99,,,-99.99,,2013-01-22 21:03:00,
2013-01-22 16:13:00,21.0,-1.0,-100.00,WNW,300,7.0,17.0,38,-99.99,,,-99.99,,2013-01-22 21:13:00,
2013-01-22 16:23:00,21.0,-1.0,-100.00,WNW,300,7.0,17.0,38,-99.99,,,-99.99,,2013-01-22 21:23:00,
2013-01-22 16:33:00,21.0,-1.0,-100.00,WNW,300,7.0,17.0,38,-99.99,,,-99.99,,2013-01-22 21:33:00,
2013-01-22 17:22:00,21.0,-1.0,-100.00,NW,315,4.0,12.0,39,-99.99,,,-99.99,,2013-01-22 22:22:00,
2013-01-22 17:32:00,21.0,-1.0,-100.00,NW,315,4.0,12.0,39,-99.99,,,-99.99,,2013-01-22 22:32:00,
2013-01-22 17:43:00,21.0,-1.0,-100.00,NW,315,4.0,12.0,39,-99.99,,,-99.99,,2013-01-22 22:43:00,
2013-01-22 17:53:00,21.0,-1.0,-100.00,NW,315,4.0,12.0,39,-99.99,,,-99.99,,2013-01-22 22:53:00,
2013-01-22 18:03:00,21.0,-1.0,-100.00,WNW,285,4.0,7.0,39,-99.99,,,-99.99,,2013-01-22 23:03:00,
2013-01-22 18:12:00,20.0,0.0,-100.00,West,280,4.0,9.0,40,-99.99,,,-99.99,,2013-01-22 23:12:00,
2013-01-22 18:24:00,20.0,0.0,-100.00,West,280,4.0,9.0,40,-99.99,,,-99.99,,2013-01-22 23:24:00,
2013-01-22 18:33:00,20.0,0.0,-100.00,West,280,4.0,9.0,40,-99.99,,,-99.99,,2013-01-22 23:33:00,
2013-01-22 18:43:00,20.0,0.0,-100.00,West,280,4.0,9.0,40,-99.99,,,-99.99,,2013-01-22 23:43:00,
2013-01-22 18:52:00,20.0,0.0,-100.00,NW,320,4.0,7.0,41,-99.99,,,-99.99,,2013-01-22 23:52:00,
2013-01-22 19:03:00,20.0,0.0,-100.00,WNW,295,3.0,6.0,41,-99.99,,,-99.99,,2013-01-23 00:03:00,
2013-01-22 19:12:00,20.0,0.0,-100.00,WNW,295,3.0,6.0,41,-99.99,,,-99.99,,2013-01-23 00:12:00,
2013-01-22 19:22:00,20.0,0.0,-100.00,WNW,295,3.0,6.0,41,-99.99,,,-99.99,,2013-01-23 00:22:00,
2013-01-22 19:33:00,20.0,0.0,-100.00,WNW,295,3.0,6.0,41,-99.99,,,-99.99,,2013-01-23 00:33:00,
2013-01-22 19:43:00,20.0,0.0,-100.00,WNW,295,3.0,6.0,41,-99.99,,,-99.99,,2013-01-23 00:43:00,
2013-01-22 23:23:00,19.0,3.0,-100.00,West,260,1.0,3.0,50,-99.99,,,-99.99,,2013-01-23 04:23:00,
2013-01-22 23:33:00,19.0,3.0,-100.00,West,260,1.0,3.0,50,-99.99,,,-99.99,,2013-01-23 04:33:00,
2013-01-22 23:43:00,19.0,3.0,-100.00,West,260,1.0,3.0,50,-99.99,,,-99.99,,2013-01-23 04:43:00,
2013-01-22 23:53:00,17.0,3.0,-100.00,South,180,0.0,0.0,52,-99.99,,,-99.99,,2013-01-23 04:53:00,